This is the latest recevied weather packets stored in our database for station/object EA3ANS-1. If no packets are shown the sender has not sent any weather packets the latest 10 day(s).
| Time | Temp. | Humidity | Pressure | Rain* | Wind** | Luminosity | Snow |
|---|---|---|---|---|---|---|---|
| 1787773585 | 27.22° C | - | 1009.9 hPa | 0 mm | 2.24 m/s, 125° | - | - |
| 1787772980 | 27.22° C | - | 1009.7 hPa | 0 mm | 3.13 m/s, 132° | - | - |
| 1787772382 | 27.78° C | - | 1009.6 hPa | 0 mm | 2.24 m/s, 141° | - | - |
| 1787771784 | 27.78° C | - | 1009.6 hPa | 0 mm | 3.13 m/s, 167° | - | - |
| 1787771186 | 27.78° C | - | 1009.6 hPa | 0 mm | 1.79 m/s, 165° | - | - |
| 1787770589 | 27.78° C | - | 1009.2 hPa | 0 mm | 2.68 m/s, 149° | - | - |
| 1787769991 | 27.78° C | - | 1009.4 hPa | 0 mm | 2.68 m/s, 172° | - | - |
| 1787769379 | 28.33° C | - | 1009.4 hPa | 0 mm | 2.24 m/s, 143° | - | - |
| 1787768781 | 28.89° C | - | 1009.5 hPa | 0 mm | 3.13 m/s, 117° | - | - |
| 1787768184 | 29.44° C | - | 1009.5 hPa | 0 mm | 2.24 m/s, 142° | - | - |
| 1787767584 | 30° C | - | 1009.3 hPa | 0 mm | 2.68 m/s, 132° | - | - |
| 1787766983 | 30° C | - | 1009.2 hPa | 0 mm | 2.68 m/s, 143° | - | - |
| 1787766382 | 30.56° C | - | 1009.1 hPa | 0 mm | 1.79 m/s, 163° | - | - |
| 1787765785 | 30.56° C | - | 1009 hPa | 0 mm | 0.89 m/s, 118° | - | - |
| 1787765168 | 31.11° C | - | 1009 hPa | 0 mm | 2.68 m/s, 177° | - | - |
| 1787764676 | 31.11° C | - | 1009.1 hPa | 0 mm | 2.68 m/s, 156° | - | - |
| 1787764626 | 31.11° C | - | 1009.1 hPa | 0 mm | 2.68 m/s, 156° | - | - |
| 1787764571 | 31.11° C | - | 1009.1 hPa | 0 mm | 2.68 m/s, 156° | - | - |
| 1787763969 | 31.11° C | - | 1009.2 hPa | 0 mm | 3.58 m/s, 160° | - | - |
| 1787763372 | 31.11° C | - | 1009 hPa | 0 mm | 4.02 m/s, 174° | - | - |
| 1787762770 | 31.67° C | - | 1009.5 hPa | 0 mm | 3.13 m/s, 110° | - | - |
| 1787762170 | 31.67° C | - | 1009.4 hPa | 0 mm | 2.24 m/s, 174° | - | - |
| 1787761572 | 32.22° C | - | 1009.5 hPa | 0 mm | 3.58 m/s, 162° | - | - |
| 1787760968 | 32.22° C | - | 1009.6 hPa | 0 mm | 2.68 m/s, 145° | - | - |
| 1787760364 | 32.22° C | - | 1009.5 hPa | 0 mm | 3.13 m/s, 113° | - | - |
* Rain latest hour (hover to see other rain measurements)
** Current wind speed in m/s (hover to see current wind gust speed)